sat.trackr.live / text

‹ back to catalog

SCD 2

NORAD 25504 · 1998-060A

PAYLOAD ACTIVE UNKNOWN

§ Identity

Operator
Country
BRAZ
Launch date
1998-10-23
Launch site
ERAS
Launch vehicle
Mass (kg)
RCS (m²)
0.46

Purposes: earth_obs

External: N2YO · Heavens-Above · Gunter

§ Orbital elements

Epoch: 2026-09-13T01:07:54.318144Z

Period
99.62 min
Inclination
24.9946°
Eccentricity
0.0016590
Mean motion
14.45551910 rev/d
Perigee alt
728.4 km
Apogee alt
752.0 km
Semi-major
7,118.4 km
B*
4.4834e-5
RAAN
250.3186°
Arg perigee
332.5608°
Mean anomaly
67.6501°
Rev number
47,305

§ Raw data

SCD 21 25504U 98060A   26256.04715646  .00000343  00000+0  44834-4 0  99992 25504  24.9946 250.3186 0016590 332.5608  67.6501 14.45551910473054

JSON: /api/v1/satellites/25504 · /tle

For live sub-satellite position, see the globe view (requires WebGL).

§ Visibility from observer

Set your observer location to see the next 7 days of passes ≥ 10°. The values pass through the URL so the page stays shareable.

No JS? Fill the form by hand. The geolocation button needs JavaScript.